Regional Weather Roundup
Issued by NWS

Home | Current Version | Previous Version | Text Only | Print | Product List | Glossary Off
Versions: 1 2 3 4 5 6 7 8 9 10 11 12 13 14 15 16 17 18 19 20 21 22 23 24 25 26 27

000
ASUS45 KBOU 251607
RWRCO

WEATHER ROUNDUP FOR COLORADO
NATIONAL WEATHER SERVICE DENVER/BOULDER CO
1000 AM MDT TUE JUL 25 2017

NOTE: "FAIR" INDICATES FEW OR NO CLOUDS BELOW 12000 FEET WITH NO
SIGNIFICANT WEATHER AND/OR OBSTRUCTIONS TO VISIBILITY.

COZ001>005-013-030-031-251700-
...NORTHWEST COLORADO...

CITY           SKY/WX    TMP DP  RH WIND       PRES   REMARKS
CRAIG          CLOUDY    67  56  67 CALM      30.26R
HAYDEN         PTSUNNY   64  50  59 N3        30.28R
MEEKER         CLOUDY    67  56  67 CALM      30.27R
RABBIT EARS PA PTSUNNY   59  46  63 SW5       30.54R
STEAMBOAT SPGS CLOUDY    66  50  56 W3        30.28S
WALDEN         CLOUDY    66  45  45 SW7       30.36S
$$

COZ006>008-011-251700-
...WEST CENTRAL VALLEYS...

CITY           SKY/WX    TMP DP  RH WIND       PRES   REMARKS
GRAND JUNCTION FAIR      71  64  78 SE12      30.17F
MONTROSE       PTSUNNY   68  61  78 NW6       30.24F
EAGLE          PTSUNNY   70  54  56 N3        30.29F
RIFLE          CLOUDY    66  61  84 W5        30.23R
DELTA          RAIN      75  59  56 NE5       30.21F
NUCLA          FAIR      68  61  77 CALM      30.28S
$$

COZ017>023-064>068-251700-
...SOUTHWEST COLORADO...

CITY           SKY/WX    TMP DP  RH WIND       PRES   REMARKS
DURANGO        FAIR      69  57  65 SE5       30.31S
CORTEZ         FAIR      73  60  63 SE12      30.24S
PAGOSA SPRINGS FAIR      68  53  58 SE3       30.39S
TELLURIDE      CLOUDY    64  53  68 CALM      30.45S
WOLF CREEK PAS HVY SNOW  46  46 100 S15G24    30.70S VSB<1/4
$$

COZ009-010-012-014-032>034-037-058>063-251700-
...CENTRAL COLORADO...

CITY           SKY/WX    TMP DP  RH WIND       PRES   REMARKS
ASPEN          PTSUNNY   63  53  70 N5        30.34F
BUENA VISTA    CLOUDY    63  52  67 NW3       30.38S
COPPER MTN     CLOUDY    54  43  66 S8        30.66S
BERTHOUD PASS  PTSUNNY   46  32  57 W14G24    30.68R
COTTONWOOD PAS PTSUNNY   59  54  82 E7        30.51S
GUNNISON       FAIR      62  54  74 N5        30.38F
KREMMLING      PTSUNNY   79  46  31 CALM      30.32S
LEADVILLE      CLOUDY    58  48  69 VRB3      30.49S
SALIDA         PTSUNNY   71  52  50 N5        30.41F
SUNLIGHT       CLOUDY    50  46  87 S9        30.57S
WILKERSON PASS PTSUNNY   50  45  81 SW15G21   30.61S
$$

COZ069>075-251700-
...SAN LUIS VALLEY/SANGRE DE CRISTO MOUNTAINS...

CITY           SKY/WX    TMP DP  RH WIND       PRES   REMARKS
ALAMOSA        FAIR      66  56  70 E5        30.36S
DEL NORTE      FAIR      66  52  61 W5        30.39F
LA VETA PASS   NOT AVBL
SAGUACHE         N/A    N/A N/A N/A MISG        N/A
$$

COZ035-036-038>040-251700-
...NORTHERN COLORADO FRONT RANGE...

CITY           SKY/WX    TMP DP  RH WIND       PRES   REMARKS
DENVER INTL AP PTSUNNY   84  44  24 W12       30.10R
DMNS CITY PARK   N/A     81  51  35 SW5       30.10S
AURORA         PTSUNNY   81  49  33 SW8       30.13S
FRONT RANGE AP FAIR      86  45  23 W10       30.12S
ERIE MUNI ARPT FAIR      82  45  27 NW3       30.08S
BOULDER MUN AP FAIR      82  45  26 W8        30.08F
CENTENNIAL     PTSUNNY   79  47  32 SW12      30.15R
BROOMFIELD     PTSUNNY   82  48  30 E12       30.13R
FORT COLLINS   FAIR      76  52  43 S6G20     30.08S
LONGMONT       PTSUNNY   77  53  43 N9        30.08F
$$

COZ041-046-047-076>085-087-088-251700-
...PIKES PEAK/PALMER DIVIDE AND SOUTHERN FOOTHILLS...

CITY           SKY/WX    TMP DP  RH WIND       PRES   REMARKS
COLO. SPRINGS  PTSUNNY   81  52  36 CALM      30.19S
A. F. ACADEMY  PTSUNNY   77  49  38 W14       30.21R
SCHRIEVER AFB  FAIR      78  48  33 W8        30.20R
CHEYENNE MTN   PTSUNNY   74  47  38 S5        30.20R
ELLICOTT       NOT AVBL
FALCON           N/A     76  47  36 W16       30.25R
FORT CARSON    FAIR      76  56  49 CALM      30.16R
LIMON          FAIR      78  60  53 SE8       30.13R
MONUMENT HILL  FAIR      73  50  43 W10       30.27S
CANON CITY     MOSUNNY   84  57  39 SW12      30.14R
WALSENBURG     NOT AVBL
TRINIDAD       FAIR      84  51  31 VRB6      30.17S
$$

COZ042>045-048>051-090-091-251700-
...NORTHEAST COLORADO...

CITY           SKY/WX    TMP DP  RH WIND       PRES   REMARKS
GREELEY ARPT   FAIR      76  59  55 W9        30.07R
AKRON          FAIR      85  58  39 S9        30.04S
BURLINGTON     FAIR      84  65  52 S16       30.05S
WRAY           NOT AVBL
YUMA           FAIR      82  54  36 S14       30.02S
STERLING       FAIR      82  63  51 S5        29.99S
HOLYOKE        FAIR      86  66  51 S8        30.00F
FORT MORGAN    FAIR      84  53  34 SW7       30.03S
$$

COZ086-089-092>099-251700-
...SOUTHEAST COLORADO...

CITY           SKY/WX    TMP DP  RH WIND       PRES   REMARKS
PUEBLO         FAIR      88  54  31 VRB5      30.07F
LA JUNTA       FAIR      87  57  35 W8        30.04F
LAMAR          FAIR      90  59  35 VRB6      30.00F
SPRINGFIELD      N/A     86  61  42 SW16G23   30.09S
$$




USA.gov is the U.S. government's official web portal to all federal, state and local government web resources and services.